Location: Unspecified
(49.2170°N, 0.0000°E)
Time: 13:38:52
(UTC+00:00)

Transit 4A - Pass Details

Date: 24 June 2019
Orbit: 862 x 982 km, 66.8° (Epoch: 17 July)

Event Time Altitude Azimuth Distance (km) Brightness Sun altitude
Rises 09:19:11 0° 244° (WSW) 3,639 10.7 49.0°
Reaches altitude 10° 09:21:54 10° 252° (WSW) 2,709 10.1 49.4°
Maximum altitude 09:27:49 39° 320° (NW) 1,437 9.0 50.3°
Drops below altitude 10° 09:33:48 10° 28° (NNE) 2,747 10.5 51.1°
Sets 09:36:36 0° 37° (NE) 3,695 11.1 51.5°
